Naples, Italy

3:48 PM CEST on August 27, 2016 (GMT +0200)
Capodichino Mil

Weather History for LIRN - September, 2011

Change the Weather History Date:

Monday, September 19, 2011

  Actual Average Record
Temperature  
Mean Temperature 68 °F -  
Max Temperature 77 °F 74 °F 87 °F (2015)
Min Temperature 60 °F 56 °F 51 °F (1996)
Cooling Degree Days 4    
Growing Degree Days 18 (Base 50)    
Moisture  
Dew Point 60 °F    
Average Humidity 68    
Maximum Humidity 83    
Minimum Humidity 41    
Precipitation  
Precipitation 0.28 in 0.15 in - ()
Sea Level Pressure  
Sea Level Pressure 29.76 in    
Wind  
Wind Speed 9 mph ()    
Max Wind Speed 22 mph    
Max Gust Speed 34 mph    
Visibility 6.1 miles    
Events Rain , Thunderstorm    
Averages and records for this station are not official NWS values.
T = Trace of Precipitation, MM = Missing Value Source: Averaged Metar Reports

Daily Weather History Graph

Daily Weather History Graph

Search for Another Location

Airport or City:

Trip Planner

Search our weather history database for the weather conditions in past years. The results will help you decide how hot, cold, wet, or windy it might be!

Date:

Astronomy

Sep. 19, 2011 Rise Set
Actual Time 6:46 AM CEST 7:06 PM CEST
Civil Twilight 6:19 AM CEST 7:33 PM CEST
Nautical Twilight 5:47 AM CEST 8:05 PM CEST
Astronomical Twilight 5:14 AM CEST 8:38 PM CEST
Moon 10:54 PM CEST (9/19) 1:24 PM CEST (9/19)
Length of Visible Light 13h 14m
Length of Day
12h 19m
Waning Gibbous, 61% of the Moon is Illuminated
Sep 19
Waning Gibbous
Sep 20
Last Quarter
Sep 27
New
Oct 4
First Quarter
Oct 12
Full

Hourly Weather History & Observations

Time (CEST) Temp. Dew Point Humidity Pressure Visibility Wind Dir Wind Speed Gust Speed Precip Events Conditions
12:50 AM 77.0 °F 68.0 °F 74% 29.80 in 6.2 mi South 5.8 mph - N/A   Scattered Clouds
1:20 AM 77.0 °F 68.0 °F 74% 29.77 in 6.2 mi South 8.1 mph - N/A   Scattered Clouds
1:50 AM 77.0 °F 68.0 °F 74% 29.77 in 6.2 mi South 5.8 mph - N/A   Mostly Cloudy
2:00 AM 77 °F 68 °F 66% 29.76 in 10 mi South 4.6 mph - -   Mostly Cloudy
2:20 AM 73.4 °F 64.4 °F 73% 29.74 in 6.2 mi ENE 3.5 mph - N/A   Mostly Cloudy
2:50 AM 73.4 °F 64.4 °F 73% 29.74 in 3.7 mi Variable 5.8 mph 27.6 mph N/A Rain , Thunderstorm Light Thunderstorms and Rain
3:20 AM 71.6 °F 64.4 °F 78% 29.74 in 2.5 mi South 5.8 mph - N/A Rain , Thunderstorm Heavy Thunderstorms and Rain
3:50 AM 71.6 °F 66.2 °F 83% 29.71 in 6.2 mi South 4.6 mph - N/A Thunderstorm Thunderstorm
4:20 AM 73.4 °F 68.0 °F 83% 29.71 in - South 8.1 mph - N/A   Scattered Clouds
4:50 AM 75.2 °F 68.0 °F 78% 29.68 in 6.2 mi SW 11.5 mph - N/A   Scattered Clouds
5:00 AM 76 °F 69 °F 72% 29.70 in 10 mi SW 12.7 mph - -   Partly Cloudy
5:20 AM 77.0 °F 68.0 °F 74% 29.68 in 6.2 mi SW 13.8 mph 26.5 mph N/A   Scattered Clouds
5:50 AM 77.0 °F 68.0 °F 74% 29.71 in 6.2 mi SW 12.7 mph - N/A   Mostly Cloudy
6:20 AM 75.2 °F 68.0 °F 78% 29.71 in 6.2 mi SSW 10.4 mph - N/A Thunderstorm Thunderstorm
6:50 AM 77.0 °F 69.8 °F 78% 29.68 in 3.7 mi SSW 13.8 mph - N/A Rain , Thunderstorm Light Thunderstorms and Rain
7:20 AM 73.4 °F 66.2 °F 78% 29.71 in 4.3 mi West 19.6 mph - N/A Rain , Thunderstorm Light Thunderstorms and Rain
7:50 AM 71.6 °F 66.2 °F 83% 29.71 in 6.2 mi West 10.4 mph - N/A Rain Rain
8:00 AM 71 °F 65 °F 76% 29.71 in 5 mi WNW 8.1 mph - - Rain Light Rain
8:20 AM 71.6 °F 64.4 °F 78% 29.71 in 6.2 mi West 5.8 mph - N/A   Scattered Clouds
8:50 AM 71.6 °F 64.4 °F 78% 29.74 in 6.2 mi SW 4.6 mph - N/A   Mostly Cloudy
9:20 AM 71.6 °F 64.4 °F 78% 29.74 in 5.0 mi WSW 10.4 mph - N/A   Mostly Cloudy
9:50 AM 69.8 °F 64.4 °F 83% 29.74 in 2.5 mi West 10.4 mph - N/A Rain Rain
10:20 AM 69.8 °F 64.4 °F 83% 29.74 in 5.0 mi WNW 8.1 mph - N/A Rain Light Rain
10:50 AM 69.8 °F 64.4 °F 83% 29.77 in 6.2 mi WNW 9.2 mph - N/A Rain Light Rain
11:00 AM 72 °F 67 °F 79% 29.77 in 5 mi WNW 9.2 mph - - Rain Light Rain
11:20 AM 73.4 °F 60.8 °F 65% 29.77 in 6.2 mi WNW 12.7 mph - N/A   Partly Cloudy
11:50 AM 73.4 °F 57.2 °F 57% 29.77 in 6.2 mi WNW 16.1 mph - N/A   Partly Cloudy
12:20 PM 73.4 °F 55.4 °F 53% 29.80 in 6.2 mi West 17.3 mph 29.9 mph N/A   Scattered Clouds
12:50 PM 75.2 °F 51.8 °F 44% 29.80 in 6.2 mi West 19.6 mph - N/A   Scattered Clouds
1:20 PM 75.2 °F 53.6 °F 47% 29.80 in 6.2 mi West 21.9 mph - N/A   Partly Cloudy
1:50 PM 73.4 °F 53.6 °F 50% 29.77 in 6.2 mi West 16.1 mph 27.6 mph N/A   Scattered Clouds
2:20 PM 75.2 °F 53.6 °F 47% 29.80 in 6.2 mi West 18.4 mph 33.4 mph N/A   Scattered Clouds
2:50 PM 73.4 °F 53.6 °F 50% 29.80 in 6.2 mi West 20.7 mph 33.4 mph N/A   Scattered Clouds
3:20 PM 75.2 °F 51.8 °F 44% 29.80 in 6.2 mi West 18.4 mph 29.9 mph N/A   Scattered Clouds
3:50 PM 75.2 °F 50.0 °F 41% 29.80 in 6.2 mi West 17.3 mph - N/A   Scattered Clouds
4:20 PM 75.2 °F 51.8 °F 44% 29.80 in 6.2 mi West 19.6 mph - N/A   Scattered Clouds
4:50 PM 73.4 °F 51.8 °F 47% 29.80 in 6.2 mi West 17.3 mph - N/A   Scattered Clouds
5:00 PM 70 °F 57 °F 54% 29.81 in 9 mi West 18.4 mph - -   Partly Cloudy
5:20 PM 71.6 °F 53.6 °F 53% 29.80 in 6.2 mi West 16.1 mph 27.6 mph N/A   Scattered Clouds
5:50 PM 69.8 °F 55.4 °F 60% 29.80 in 6.2 mi West 13.8 mph - N/A   Scattered Clouds
6:20 PM 68.0 °F 55.4 °F 64% 29.80 in 6.2 mi West 13.8 mph - N/A   Scattered Clouds
6:50 PM 68.0 °F 55.4 °F 64% 29.80 in 5.0 mi West 15.0 mph - N/A Rain , Thunderstorm Light Thunderstorms and Rain
7:50 PM - - N/A% - 6.2 mi SSW 4.6 mph - N/A Thunderstorm Thunderstorm
8:00 PM 63 °F 53 °F 63% 29.83 in 12 mi West 20.7 mph - - Thunderstorm Thunderstorm
8:20 PM 62.6 °F 53.6 °F 72% 29.80 in 5.0 mi West 6.9 mph - N/A Rain , Thunderstorm Light Thunderstorms and Rain
8:50 PM 62.6 °F 53.6 °F 72% 29.80 in 3.1 mi West 20.7 mph 34.5 mph N/A Rain , Thunderstorm Thunderstorms and Rain
9:20 PM 64.4 °F 55.4 °F 73% 29.80 in 6.2 mi WSW 11.5 mph - N/A Thunderstorm Thunderstorm
9:50 PM 64.4 °F 55.4 °F 73% 29.80 in 5.0 mi SSW 4.6 mph - N/A Rain , Thunderstorm Thunderstorms and Rain
10:20 PM 64.4 °F 55.4 °F 73% 29.80 in 5.0 mi West 4.6 mph - N/A Thunderstorm Thunderstorm
10:50 PM 64.4 °F 53.6 °F 68% 29.80 in 6.2 mi NW 9.2 mph - N/A Rain , Thunderstorm Light Thunderstorms and Rain
11:00 PM 63 °F 54 °F 66% 29.79 in 12 mi NNW 3.5 mph - - Thunderstorm Light Thunderstorm
11:20 PM 60.8 °F 53.6 °F 77% 29.80 in 4.3 mi WNW 9.2 mph - N/A Rain , Thunderstorm Thunderstorms and Rain
11:50 PM 60.8 °F 53.6 °F 77% 29.77 in 6.2 mi North 3.5 mph - N/A Thunderstorm Thunderstorm